Total_Precipitation_Accumulation
0.31 0.31 0.37 0.40 0.33 0.33 0.45 0.46 0.39 0.22 0.20 0.22 0.19 0.14 0.13 0.10 0.09 0.10 0.13 0.13 0.12 0.13 0.15 0.16 0.20 0.22 0.22 0.23 0.27 0.36 0.51 0.64 0.71 0.75 0.83 0.90 0.91 0.93 0.98 1.11 1.17 1.16 1.18 1.21
0.26 0.18 0.24 0.28 0.20 0.20 0.22 0.20 0.22 0.18 0.19 0.23 0.20 0.15 0.13 0.13 0.11 0.11 0.12 0.10 0.10 0.11 0.14 0.16 0.18 0.21 0.20 0.22 0.25 0.32 0.45 0.55 0.64 0.77 0.89 1.02 1.03 1.06 1.08 1.12 1.19 1.21 1.17 1.15
0.44 0.20 0.35 0.40 0.20 0.18 0.18 0.16 0.17 0.22 0.23 0.19 0.18 0.16 0.14 0.14 0.14 0.12 0.10 0.08 0.08 0.10 0.12 0.14 0.16 0.17 0.18 0.21 0.25 0.30 0.40 0.51 0.57 0.70 0.83 0.94 0.97 1.01 1.03 0.96 0.95 1.05 1.11 1.03
0.67 0.48 0.69 0.33 0.14 0.13 0.16 0.16 0.16 0.18 0.18 0.17 0.18 0.16 0.14 0.14 0.14 0.12 0.11 0.10 0.10 0.10 0.10 0.11 0.13 0.15 0.15 0.16 0.20 0.27 0.35 0.48 0.50 0.60 0.72 0.79 0.85 0.90 0.92 0.83 0.83 0.93 0.94 0.85
0.94 0.70 0.39 0.17 0.13 0.17 0.22 0.24 0.18 0.16 0.14 0.12 0.13 0.13 0.15 0.17 0.13 0.12 0.11 0.10 0.11 0.11 0.10 0.10 0.12 0.13 0.13 0.13 0.16 0.23 0.30 0.40 0.45 0.52 0.65 0.67 0.73 0.83 0.83 0.83 0.83 0.80 0.80 0.75
1.05 0.78 0.37 0.18 0.11 0.13 0.20 0.31 0.17 0.13 0.13 0.13 0.14 0.25 0.23 0.22 0.17 0.13 0.09 0.09 0.10 0.10 0.09 0.10 0.11 0.12 0.11 0.12 0.15 0.20 0.26 0.32 0.37 0.41 0.53 0.55 0.58 0.65 0.69 0.70 0.73 0.74 0.72 0.68
0.83 0.64 0.27 0.14 0.12 0.15 0.37 0.43 0.17 0.12 0.13 0.14 0.20 0.30 0.26 0.21 0.19 0.15 0.12 0.11 0.10 0.10 0.10 0.10 0.11 0.13 0.11 0.11 0.14 0.18 0.22 0.26 0.31 0.35 0.40 0.45 0.49 0.53 0.59 0.61 0.64 0.69 0.68 0.62
0.61 0.68 0.34 0.15 0.19 0.34 0.40 0.21 0.13 0.11 0.10 0.12 0.13 0.12 0.13 0.15 0.16 0.14 0.14 0.14 0.12 0.11 0.10 0.10 0.11 0.12 0.10 0.10 0.13 0.15 0.20 0.24 0.29 0.34 0.34 0.38 0.43 0.49 0.52 0.59 0.68 0.70 0.66 0.63
0.44 0.36 0.22 0.16 0.23 0.24 0.18 0.13 0.10 0.10 0.10 0.12 0.11 0.10 0.12 0.13 0.13 0.13 0.14 0.14 0.13 0.12 0.13 0.12 0.11 0.11 0.10 0.10 0.13 0.16 0.19 0.23 0.29 0.33 0.31 0.37 0.43 0.50 0.53 0.60 0.69 0.71 0.66 0.62
0.22 0.14 0.10 0.11 0.13 0.14 0.12 0.10 0.08 0.09 0.11 0.10 0.10 0.09 0.11 0.11 0.12 0.14 0.14 0.12 0.11 0.12 0.14 0.13 0.11 0.11 0.10 0.10 0.14 0.18 0.20 0.22 0.27 0.34 0.35 0.35 0.40 0.49 0.54 0.58 0.72 0.77 0.73 0.68
0.16 0.08 0.06 0.07 0.08 0.09 0.10 0.08 0.06 0.07 0.09 0.08 0.08 0.08 0.09 0.12 0.13 0.14 0.14 0.12 0.11 0.11 0.12 0.13 0.12 0.10 0.09 0.11 0.16 0.20 0.22 0.24 0.28 0.35 0.39 0.37 0.39 0.44 0.50 0.51 0.70 0.86 0.79 0.79
0.13 0.07 0.08 0.06 0.05 0.05 0.07 0.07 0.06 0.07 0.08 0.06 0.06 0.07 0.08 0.10 0.12 0.12 0.12 0.13 0.12 0.10 0.11 0.12 0.11 0.10 0.10 0.12 0.17 0.23 0.27 0.29 0.32 0.38 0.40 0.39 0.40 0.42 0.47 0.48 0.55 0.59 0.66 0.75
0.10 0.06 0.06 0.04 0.03 0.04 0.06 0.06 0.05 0.06 0.08 0.09 0.06 0.07 0.09 0.09 0.10 0.11 0.09 0.10 0.12 0.12 0.11 0.11 0.10 0.10 0.11 0.14 0.18 0.24 0.30 0.34 0.36 0.40 0.40 0.40 0.38 0.40 0.45 0.44 0.46 0.49 0.55 0.62
0.07 0.08 0.07 0.04 0.04 0.04 0.05 0.05 0.05 0.05 0.05 0.08 0.08 0.07 0.09 0.10 0.10 0.11 0.10 0.09 0.10 0.12 0.12 0.11 0.09 0.10 0.12 0.15 0.20 0.25 0.30 0.35 0.39 0.41 0.41 0.38 0.35 0.37 0.42 0.47 0.53 0.55 0.60 0.65
0.06 0.07 0.08 0.05 0.04 0.03 0.04 0.05 0.06 0.06 0.05 0.05 0.07 0.09 0.10 0.11 0.11 0.10 0.09 0.08 0.08 0.10 0.10 0.10 0.10 0.10 0.12 0.15 0.20 0.26 0.32 0.35 0.39 0.41 0.40 0.35 0.33 0.35 0.37 0.41 0.49 0.58 0.65 0.73
0.07 0.06 0.05 0.05 0.04 0.04 0.05 0.05 0.06 0.06 0.06 0.06 0.06 0.08 0.11 0.12 0.12 0.11 0.09 0.08 0.09 0.09 0.09 0.10 0.10 0.12 0.13 0.16 0.22 0.28 0.34 0.42 0.47 0.44 0.42 0.38 0.35 0.37 0.39 0.42 0.48 0.55 0.64 0.70
0.12 0.08 0.06 0.06 0.05 0.05 0.06 0.07 0.08 0.07 0.07 0.07 0.07 0.07 0.09 0.12 0.12 0.12 0.10 0.09 0.10 0.09 0.09 0.10 0.12 0.13 0.14 0.18 0.26 0.34 0.39 0.41 0.47 0.46 0.45 0.43 0.43 0.44 0.44 0.47 0.53 0.56 0.59 0.66
0.12 0.11 0.09 0.09 0.09 0.08 0.07 0.06 0.07 0.07 0.08 0.08 0.08 0.09 0.11 0.13 0.16 0.15 0.13 0.12 0.12 0.11 0.10 0.11 0.15 0.16 0.16 0.21 0.29 0.35 0.40 0.42 0.41 0.43 0.47 0.49 0.51 0.50 0.50 0.52 0.55 0.57 0.57 0.60
0.10 0.10 0.09 0.09 0.10 0.10 0.09 0.08 0.07 0.07 0.07 0.08 0.10 0.11 0.13 0.16 0.20 0.21 0.18 0.15 0.15 0.15 0.16 0.17 0.21 0.19 0.20 0.27 0.35 0.37 0.41 0.45 0.44 0.45 0.48 0.54 0.52 0.47 0.50 0.54 0.58 0.60 0.59 0.60
0.09 0.11 0.11 0.10 0.10 0.10 0.10 0.09 0.08 0.08 0.08 0.09 0.11 0.12 0.13 0.16 0.20 0.22 0.21 0.19 0.18 0.20 0.21 0.23 0.22 0.22 0.25 0.33 0.43 0.43 0.42 0.43 0.46 0.50 0.52 0.52 0.51 0.50 0.52 0.56 0.61 0.66 0.65 0.63
0.12 0.13 0.13 0.13 0.11 0.10 0.10 0.10 0.10 0.10 0.11 0.12 0.16 0.18 0.18 0.20 0.22 0.24 0.24 0.23 0.21 0.23 0.25 0.26 0.26 0.30 0.37 0.45 0.47 0.42 0.41 0.43 0.46 0.51 0.55 0.55 0.56 0.57 0.58 0.60 0.65 0.69 0.69 0.67
0.16 0.17 0.16 0.16 0.15 0.13 0.12 0.13 0.13 0.14 0.14 0.15 0.18 0.21 0.23 0.24 0.25 0.26 0.26 0.27 0.28 0.31 0.28 0.24 0.26 0.36 0.47 0.48 0.42 0.40 0.40 0.42 0.47 0.54 0.59 0.59 0.60 0.63 0.63 0.64 0.70 0.70 0.68 0.67
0.19 0.20 0.20 0.20 0.21 0.20 0.18 0.19 0.19 0.19 0.20 0.21 0.22 0.24 0.26 0.28 0.30 0.31 0.30 0.28 0.30 0.32 0.30 0.27 0.29 0.38 0.45 0.41 0.38 0.39 0.41 0.44 0.49 0.56 0.60 0.62 0.65 0.68 0.69 0.70 0.73 0.75 0.74 0.70
0.23 0.24 0.25 0.26 0.26 0.25 0.24 0.23 0.22 0.23 0.25 0.26 0.27 0.29 0.30 0.30 0.29 0.30 0.32 0.33 0.34 0.35 0.33 0.33 0.35 0.40 0.44 0.39 0.39 0.43 0.46 0.50 0.57 0.64 0.67 0.68 0.71 0.71 0.73 0.77 0.82 0.80 0.75 0.70
0.28 0.28 0.28 0.29 0.30 0.30 0.29 0.26 0.24 0.24 0.25 0.25 0.26 0.26 0.27 0.31 0.35 0.36 0.34 0.33 0.34 0.36 0.34 0.36 0.39 0.43 0.42 0.41 0.42 0.48 0.52 0.58 0.70 0.82 0.82 0.78 0.76 0.76 0.76 0.79 0.84 0.82 0.77 0.72
0.35 0.35 0.36 0.37 0.37 0.36 0.34 0.32 0.31 0.29 0.29 0.28 0.27 0.26 0.28 0.32 0.38 0.40 0.38 0.36 0.36 0.39 0.38 0.40 0.42 0.45 0.45 0.46 0.48 0.52 0.57 0.63 0.75 0.81 0.78 0.75 0.76 0.79 0.80 0.81 0.82 0.81 0.79 0.75
0.39 0.38 0.37 0.38 0.39 0.39 0.41 0.42 0.41 0.41 0.41 0.39 0.36 0.33 0.34 0.37 0.41 0.41 0.38 0.37 0.37 0.38 0.40 0.44 0.46 0.46 0.47 0.50 0.56 0.59 0.61 0.65 0.77 0.86 0.84 0.80 0.79 0.80 0.78 0.79 0.80 0.81 0.80 0.77